Location: Caltech
(34.1382°N, 118.1253°W)
Time: 16:56:20
(UTC-07:00)

ITAMSAT 1 - Visible Passes

Search period start: 04 August 2015 00:00
Search period end: 14 August 2015 00:00
Orbit: 784 x 797 km, 98.7° (Epoch: 03 August)

Date Brightness Start Highest point End Pass type
(mag) Time Alt. Az. Time Alt. Az. Time Alt. Az.
04 Aug 8.9 02:46:36 10° NNE 02:50:50 33° E 02:50:50 33° E visible
04 Aug 8.9 04:26:28 10° NNW 04:30:36 24° WNW 04:31:35 22° W visible
05 Aug 9.9 02:18:30 10° NE 02:21:10 17° E 02:21:10 17° E visible
05 Aug 8.0 03:56:35 10° N 04:01:31 46° WNW 04:01:53 45° W visible
06 Aug 7.5 03:27:08 10° NNE 03:32:13 86° NNE 03:32:13 86° NNE visible
07 Aug 8.5 02:58:06 10° NNE 03:02:32 43° E 03:02:32 43° E visible
07 Aug 9.2 04:38:39 10° NNW 04:42:15 19° WNW 04:43:15 17° W visible
08 Aug 9.6 02:29:39 10° NE 02:32:50 22° E 02:32:50 22° E visible
08 Aug 8.3 04:08:30 10° N 04:13:12 35° WNW 04:13:34 35° W visible
09 Aug 10.3 02:02:56 10° ENE 02:03:09 10° E 02:03:09 10° E visible
09 Aug 7.6 03:38:54 10° N 03:43:53 69° WNW 03:43:53 69° WNW visible
10 Aug 8.2 03:09:42 10° NNE 03:14:12 55° ENE 03:14:12 55° ENE visible
10 Aug 9.4 04:51:03 10° NNW 04:53:53 14° WNW 04:54:56 13° W visible
11 Aug 9.3 02:40:59 10° NE 02:44:31 28° ENE 02:44:31 28° ENE visible
11 Aug 8.7 04:20:30 10° NNW 04:24:52 27° WNW 04:25:14 27° WNW visible
12 Aug 10.1 02:13:09 10° ENE 02:14:49 14° ENE 02:14:49 14° ENE visible
12 Aug 7.9 03:50:43 10° N 03:55:34 53° WNW 03:55:34 53° WNW visible
13 Aug 7.9 03:21:22 10° NNE 03:25:52 66° NE 03:25:52 66° NE visible
13 Aug 9.7 05:04:03 10° NW 05:05:29 11° WNW 05:06:35 10° WNW visible
